SL-16 DEB, 22608

Orbit data source: Space-Track

SL-16 DEB, 22608 is space debris in LEO originally from a launch on Fri, 26 Mar 1993 UTC launched from the Tyuratam Missile And Space Complex (TTMTR). Debris objects in space refer to the collection of defunct objects orbiting the Earth. Examples of debris include non-operational satellites, rocket bodies, and fragments generated from explosions, collisions, or faulty payload assembly.

Loading next visibility...
Identifier
22608, 1993-016S
Orbit
LEO
Country
Flag of CISCIS
Related business
Manufacturer
Unknown
Mission
Spacecraft
Bus & Motor
Unknown
Mass
Unknown
Launch date (UTC)
1993-03-26 (33 years ago)
Launch vehicle
Unknown
Launch site
Tyuratam Missile And Space Complex (TTMTR)
Object type
Payload
Rocket body
Debris
Shape & HBR
Unknown shape, 0.3 m
Radar Cross Section
Medium (>0.1 m² and <1 m²)

Expand to show TLE details & history
Last TLE update: 14 hours ago

TLE from 14 hours ago
0 SL-16 DEB
1 22608U 93016S   26255.24015464 -.00000021  00000-0  18663-4 0  9995
2 22608  71.0070 351.4360 0128588  67.0034 320.4481 13.84738308690999
Epoch: 2026-09-12T05:45Z
TLE epoch observation values (Epoch: 2026-09-12T05:45:49.360Z)
Latitude
24.99487°
Longitude
-77.0871°
Altitude
877.473 km
Speed
7.452 km/s
True Right ascension
00h 02m 28s
True Declination
24° 51' 56"
Sunlit
Object was in full shadow at epoch
Visualization orbit readout
Latitude
Unknown
Longitude
Unknown
Altitude
Unknown
Speed
Unknown
Apparent Right ascension
Unknown
Apparent Declination
Unknown
Sunlit
N/A
Visualization observer readout
Local Sidereal Time
12:40:36
Azimuth
Unknown
Elevation
Unknown
Doppler factor
Unknown
Orbital elements
Apogee altitude
1,039.25 km
Perigee altitude
850.914 km
Semi-major axis
7,323.219 km
Eccentricity
0.01286
Inclination
71.007°
RAAN
351.436°
Arg. of periapsis
67.0034°
True anomaly
319.49808°
Mean anomaly
320.4481°
Eccentric anomaly
319.97427°
Mean motion
3.4633 °/min
Orbital period
103.95 mins
BSTAR
0.000018663
Loading maneuver chart data...
Computing Atmospheric mass density...
Loading historical data...
Loading historical data...
Loading historical data...
Loading historical data...
Loading historical data...
Loading historical data...
Loading historical data...

Documentation

Showing up to 5 results
|